Location: Newark
(45.0833°N, 9.3000°E)
Time: 12:02:30
(UTC+00:00)

Envisat - Visible Passes

Search period start: 21 November 2019 00:00
Search period end: 01 December 2019 00:00
Orbit: 764 x 766 km, 98.1° (Epoch: 21 November)

Date Brightness Start Highest point End Pass type
(mag) Time Alt. Az. Time Alt. Az. Time Alt. Az.
21 Nov 6.2 04:49:47 10° ENE 04:51:50 12° E 04:53:52 10° ESE visible
21 Nov 3.7 17:43:01 10° S 17:47:58 54° W 17:52:58 10° NNW visible
22 Nov 4.4 05:49:48 10° NNE 05:54:41 45° E 05:59:31 10° S visible
22 Nov 2.9 17:06:08 10° SSE 17:11:11 72° ENE 17:16:16 10° N visible
22 Nov 5.9 18:47:51 10° SW 18:50:44 15° W 18:53:38 10° NW visible
23 Nov 5.8 05:13:47 10° NE 05:17:39 21° E 05:21:28 10° SE visible
23 Nov 3.6 16:30:02 10° SE 16:34:35 34° ENE 16:39:10 10° N visible
23 Nov 4.8 18:09:06 10° SSW 18:13:37 32° W 18:18:08 10° NNW visible
24 Nov 3.3 17:31:37 10° S 17:36:40 68° WSW 17:41:46 10° NNW visible
25 Nov 4.8 05:38:40 10° NNE 05:43:21 36° E 05:48:00 10° SSE visible
25 Nov 3.0 16:54:58 10° SSE 16:59:57 57° ENE 17:04:56 10° N visible
25 Nov 5.6 18:35:47 10° SW 18:39:20 19° W 18:42:54 10° NW visible
26 Nov 6.0 05:02:57 10° NE 05:06:15 17° E 05:09:31 10° SE visible
26 Nov 3.8 16:19:07 10° ESE 16:23:24 28° ENE 16:27:42 10° N visible
26 Nov 4.3 17:57:31 10° SSW 18:02:15 40° W 18:07:02 10° NNW visible
27 Nov 3.0 17:20:18 10° SSE 17:25:23 85° WSW 17:30:31 10° NNW visible
27 Nov 6.2 19:04:05 10° W 19:05:10 11° W 19:06:16 10° WNW visible
28 Nov 5.2 05:27:35 10° NE 05:32:00 29° E 05:36:22 10° SSE visible
28 Nov 3.2 16:43:53 10° SE 16:48:43 46° ENE 16:53:34 10° N visible
28 Nov 5.3 18:23:55 10° SW 18:27:56 24° W 18:32:00 10° NW visible
29 Nov 6.1 04:52:21 10° ENE 04:54:50 13° E 04:57:18 10° ESE visible
29 Nov 3.9 17:46:01 10° S 17:50:56 50° W 17:55:53 10° NNW visible
30 Nov 4.2 05:52:42 10° NNE 05:57:39 49° E 06:02:33 10° S visible
30 Nov 2.9 17:09:03 10° SSE 17:14:07 78° ENE 17:19:14 10° N visible
30 Nov 6.0 18:51:12 10° WSW 18:53:44 14° W 18:56:17 10° WNW visible
